When you browse on this site, cookies collect data to enhance your experience and personalize the content and advertising you see.
Visit our Privacy Policy to learn more. By continuing to use the site, you agree to this use of cookies and data.
  • In Romania
  • List of Countries
  • For 7 days
  • Water Temperature
  • Weather Map
  • Weather Widgets
  • user-avatar
    Login

    Hourly Weather Ganja

    Today, 15 September, Sunday

    Time Temperature Precipitation Wind Pressure Humidity
    00:00 +18°C° 0 mm 2 mps 729 mmHg 62%
    01:00 +18°C° 0 mm 2 mps 728 mmHg 64%
    02:00 +18°C° 0 mm 1 mps 728 mmHg 67%
    03:00 +18°C° 0 mm 1 mps 727 mmHg 70%
    04:00 +18°C° 0 mm 1 mps 728 mmHg 71%
    05:00 +18°C° 0 mm 1 mps 728 mmHg 71%
    06:00 +18°C° 0 mm 1 mps 728 mmHg 71%
    07:00 +19°C° 0 mm 1 mps 728 mmHg 67%
    08:00 +21°C° 0 mm 1 mps 728 mmHg 62%
    09:00 +21°C° 0 mm 2 mps 728 mmHg 56%
    10:00 +23°C° 0 mm 2 mps 728 mmHg 53%
    11:00 +24°C° 0 mm 2 mps 727 mmHg 50%
    12:00 +26°C° 0 mm 2 mps 727 mmHg 47%
    13:00 +26°C° 0 mm 2 mps 727 mmHg 46%
    14:00 +27°C° 0 mm 2 mps 727 mmHg 44%
    15:00 +27°C° 0 mm 3 mps 726 mmHg 43%
    16:00 +26°C° 0 mm 2 mps 726 mmHg 46%
    17:00 +25°C° 0 mm 2 mps 727 mmHg 48%
    18:00 +24°C° 0 mm 1 mps 727 mmHg 51%
    19:00 +24°C° 0 mm 1 mps 728 mmHg 52%
    20:00 +24°C° 0 mm 1 mps 728 mmHg 54%
    21:00 +23°C° 0 mm 1 mps 729 mmHg 55%
    22:00 +23°C° 0 mm 1 mps 729 mmHg 57%
    23:00 +23°C° 0 mm 1 mps 729 mmHg 58%

    Tomorrow, 16 September, Monday

    Time Temperature Precipitation Wind Pressure Humidity
    00:00 +22°C° 0 mm 1 mps 729 mmHg 60%
    01:00 +22°C° 0.1 mm 1 mps 729 mmHg 64%
    02:00 +21°C° 0.1 mm 1 mps 729 mmHg 67%
    03:00 +21°C° 0.1 mm 1 mps 729 mmHg 71%
    04:00 +20°C° 0.2 mm 1 mps 728 mmHg 73%
    05:00 +20°C° 0.2 mm 1 mps 728 mmHg 74%
    06:00 +20°C° 0.2 mm 1 mps 728 mmHg 76%
    07:00 +20°C° 0.2 mm 2 mps 728 mmHg 73%
    08:00 +21°C° 0.2 mm 2 mps 728 mmHg 70%
    09:00 +22°C° 0.2 mm 3 mps 728 mmHg 66%
    10:00 +24°C° 0 mm 3 mps 727 mmHg 63%
    11:00 +25°C° 0 mm 4 mps 727 mmHg 60%
    12:00 +26°C° 0 mm 4 mps 726 mmHg 57%
    13:00 +27°C° 0 mm 4 mps 726 mmHg 55%
    14:00 +27°C° 0 mm 3 mps 725 mmHg 53%
    15:00 +28°C° 0 mm 3 mps 725 mmHg 51%
    16:00 +27°C° 0 mm 2 mps 725 mmHg 53%
    17:00 +26°C° 0 mm 2 mps 724 mmHg 56%
    18:00 +25°C° 0 mm 1 mps 724 mmHg 58%
    19:00 +25°C° 0 mm 1 mps 724 mmHg 61%
    20:00 +24°C° 0 mm 1 mps 725 mmHg 63%
    21:00 +23°C° 0 mm 1 mps 725 mmHg 66%
    22:00 +23°C° 0 mm 1 mps 725 mmHg 67%
    23:00 +21°C° 0 mm 2 mps 724 mmHg 68%

    Day after tomorrow, 17 September, Tuesday

    Time Temperature Precipitation Wind Pressure Humidity
    00:00 +21°C° 0 mm 2 mps 724 mmHg 69%
    01:00 +21°C° 0 mm 2 mps 724 mmHg 70%
    02:00 +21°C° 0 mm 2 mps 723 mmHg 70%
    03:00 +20°C° 0 mm 2 mps 723 mmHg 70%
    04:00 +20°C° 0 mm 2 mps 723 mmHg 69%
    05:00 +20°C° 0 mm 2 mps 723 mmHg 67%
    06:00 +20°C° 0 mm 2 mps 723 mmHg 65%
    07:00 +23°C° 0 mm 2 mps 723 mmHg 60%
    08:00 +25°C° 0 mm 2 mps 723 mmHg 55%
    09:00 +27°C° 0 mm 2 mps 723 mmHg 50%
    10:00 +28°C° 0 mm 2 mps 722 mmHg 47%
    11:00 +29°C° 0 mm 2 mps 722 mmHg 45%
    12:00 +30°C° 0 mm 2 mps 722 mmHg 42%
    13:00 +30°C° 0 mm 2 mps 721 mmHg 40%
    14:00 +31°C° 0 mm 2 mps 721 mmHg 37%
    15:00 +32°C° 0 mm 2 mps 720 mmHg 35%
    16:00 +31°C° 0 mm 1 mps 720 mmHg 39%
    17:00 +29°C° 0 mm 1 mps 720 mmHg 42%
    18:00 +28°C° 0 mm 1 mps 720 mmHg 46%
    19:00 +27°C° 0 mm 3 mps 721 mmHg 49%
    20:00 +26°C° 0 mm 5 mps 722 mmHg 52%
    21:00 +24°C° 0 mm 7 mps 723 mmHg 55%
    22:00 +23°C° 0.2 mm 6 mps 723 mmHg 58%
    23:00 +22°C° 0.2 mm 5 mps 723 mmHg 60%

    18 September, Wednesday

    Time Temperature Precipitation Wind Pressure Humidity
    00:00 +22°C° 0.2 mm 3 mps 723 mmHg 62%
    01:00 +21°C° 0 mm 3 mps 724 mmHg 63%
    02:00 +21°C° 0 mm 3 mps 724 mmHg 64%
    03:00 +21°C° 0 mm 3 mps 724 mmHg 65%
    04:00 +20°C° 0 mm 3 mps 724 mmHg 66%
    05:00 +20°C° 0 mm 3 mps 725 mmHg 66%
    06:00 +20°C° 0 mm 3 mps 725 mmHg 66%
    07:00 +22°C° 0 mm 3 mps 725 mmHg 62%
    08:00 +23°C° 0 mm 4 mps 726 mmHg 58%
    09:00 +26°C° 0 mm 4 mps 726 mmHg 53%
    10:00 +27°C° 0 mm 4 mps 726 mmHg 50%
    11:00 +28°C° 0 mm 4 mps 726 mmHg 46%
    12:00 +29°C° 0 mm 3 mps 726 mmHg 42%
    13:00 +29°C° 0 mm 3 mps 726 mmHg 40%
    14:00 +30°C° 0 mm 3 mps 725 mmHg 38%
    15:00 +30°C° 0 mm 2 mps 725 mmHg 37%
    16:00 +29°C° 0 mm 2 mps 725 mmHg 39%
    17:00 +28°C° 0 mm 1 mps 725 mmHg 42%
    18:00 +27°C° 0 mm 1 mps 725 mmHg 45%
    19:00 +26°C° 0 mm 1 mps 726 mmHg 47%
    20:00 +26°C° 0 mm 1 mps 726 mmHg 48%
    21:00 +25°C° 0 mm 1 mps 726 mmHg 49%
    22:00 +24°C° 0 mm 1 mps 726 mmHg 54%
    23:00 +24°C° 0 mm 2 mps 726 mmHg 58%

    19 September, Thursday

    Time Temperature Precipitation Wind Pressure Humidity
    00:00 +23°C° 0 mm 2 mps 726 mmHg 63%
    01:00 +21°C° 0 mm 2 mps 726 mmHg 65%
    02:00 +22°C° 0 mm 1 mps 726 mmHg 66%
    03:00 +21°C° 0 mm 1 mps 726 mmHg 68%
    04:00 +21°C° 0 mm 1 mps 726 mmHg 66%
    05:00 +21°C° 0 mm 1 mps 726 mmHg 65%
    06:00 +20°C° 0 mm 2 mps 726 mmHg 63%
    07:00 +23°C° 0 mm 2 mps 726 mmHg 57%
    08:00 +25°C° 0 mm 2 mps 726 mmHg 51%
    09:00 +27°C° 0 mm 2 mps 726 mmHg 45%
    10:00 +28°C° 0 mm 2 mps 726 mmHg 41%
    11:00 +29°C° 0 mm 2 mps 725 mmHg 38%
    12:00 +30°C° 0 mm 2 mps 725 mmHg 34%
    13:00 +31°C° 0 mm 2 mps 725 mmHg 32%
    14:00 +31°C° 0 mm 2 mps 725 mmHg 31%
    15:00 +32°C° 0 mm 1 mps 724 mmHg 29%
    16:00 +30°C° 0 mm 1 mps 724 mmHg 32%
    17:00 +29°C° 0 mm 1 mps 725 mmHg 34%
    18:00 +28°C° 0 mm 1 mps 725 mmHg 37%
    19:00 +27°C° 0 mm 1 mps 725 mmHg 39%
    20:00 +27°C° 0 mm 2 mps 725 mmHg 41%
    21:00 +26°C° 0 mm 2 mps 726 mmHg 44%
    22:00 +25°C° 0 mm 3 mps 726 mmHg 49%
    23:00 +24°C° 0 mm 3 mps 726 mmHg 54%

    20 September, Friday

    Time Temperature Precipitation Wind Pressure Humidity
    00:00 +22°C° 0 mm 4 mps 726 mmHg 59%
    01:00 +22°C° 0 mm 3 mps 725 mmHg 61%
    02:00 +21°C° 0 mm 3 mps 725 mmHg 64%
    03:00 +21°C° 0 mm 2 mps 725 mmHg 66%
    04:00 +20°C° 0 mm 2 mps 725 mmHg 68%
    05:00 +20°C° 0 mm 2 mps 725 mmHg 71%
    06:00 +20°C° 0 mm 1 mps 725 mmHg 73%
    07:00 +22°C° 0 mm 1 mps 725 mmHg 69%
    08:00 +23°C° 0 mm 2 mps 725 mmHg 65%
    09:00 +24°C° 0 mm 2 mps 725 mmHg 61%
    10:00 +26°C° 0 mm 2 mps 724 mmHg 57%
    11:00 +27°C° 0 mm 2 mps 724 mmHg 53%
    12:00 +28°C° 0 mm 2 mps 724 mmHg 49%
    13:00 +29°C° 0 mm 2 mps 723 mmHg 47%
    14:00 +29°C° 0 mm 2 mps 723 mmHg 45%
    15:00 +30°C° 0 mm 2 mps 722 mmHg 43%
    16:00 +29°C° 0 mm 2 mps 722 mmHg 46%
    17:00 +28°C° 0 mm 2 mps 722 mmHg 49%
    18:00 +27°C° 0 mm 2 mps 722 mmHg 52%
    19:00 +26°C° 0 mm 2 mps 722 mmHg 52%
    20:00 +26°C° 0 mm 1 mps 722 mmHg 52%
    21:00 +25°C° 0 mm 1 mps 722 mmHg 52%
    22:00 +25°C° 0 mm 1 mps 721 mmHg 54%
    23:00 +24°C° 0 mm 1 mps 721 mmHg 55%
    Show more